Location: Wapato
(46.4478°N, 120.4212°W)
Time: 15:13:36
(UTC+00:00)

Explorer 7 - Pass Details

Date: 15 May 2026
Orbit: 426 x 534 km, 50.2° (Epoch: 8 June)

Event Time Altitude Azimuth Distance (km) Brightness Sun altitude
Rises 17:33:03 0° 292° (WNW) 2,546 9.8 49.6°
Reaches altitude 10° 17:35:12 10° 293° (WNW) 1,684 9.0 49.9°
Maximum altitude 17:39:02 82° 22° (NNE) 513 7.6 50.5°
Drops below altitude 10° 17:42:59 10° 110° (ESE) 1,741 10.2 51.0°
Sets 17:45:14 0° 111° (ESE) 2,641 10.9 51.4°
